• Join FlightAware (Why Join?)
  • Login
  • US Flag GB Flag 
07:34 EDT


 

Airport Tracker/Info


-or-


 

Live Flight TrackerFlight Track Log ✈ N102WY ✈ 04-Nov-2013 ✈ KIWA - KCYS

Flight Track Log - Related Links

Times and Time Zones

All times are in EST time to prevent confusion due to time zone crossing. See the N102WY flight status page for this flight to view local times or setup timezone preferences in your user account.

Time Position Orientation Groundspeed Altitude Reporting Facility
EST Latitude Longitude Course Direction KTS MPH feet Rate Location/Type
11:56 33.3000 -111.6333 113° Southeast 175 201 2,900  Level Phoenix TRACON
11:57 33.2667 -111.5667 121° Southeast 220 253 6,000 2,100 Climbing Phoenix TRACON
11:58 33.3069 -111.5478 21° North 263 303 7,000 1,920 Climbing Albuquerque Center
11:59 33.3825 -111.5614 351° North 275 316 9,600 3,000 Climbing Albuquerque Center
12:00 33.4733 -111.5789 351° North 275 316 13,200 3,180 Climbing Albuquerque Center
12:01 33.5481 -111.6161 337° Northwest 294 338 16,200 2,940 Climbing Albuquerque Center
12:02 33.6269 -111.6603 335° Northwest 311 358 19,300 3,120 Climbing Albuquerque Center
12:03 33.7217 -111.7056 338° Northwest 323 372 22,700 3,060 Climbing Albuquerque Center
12:04 33.8064 -111.7428 340° North 325 374 25,700 2,820 Climbing Albuquerque Center
12:05 33.9019 -111.7622 350° North 328 377 28,600 1,800 Climbing Albuquerque Center
12:06 34.0044 -111.7358 12° North 375 432 29,500 1,440 Climbing Albuquerque Center
12:07 34.1239 -111.6903 18° North 413 475 31,600 1,740 Climbing Albuquerque Center
12:08 34.2203 -111.6578 16° North 422 486 33,200 1,620 Climbing Albuquerque Center
12:09 34.3569 -111.6061 17° North 428 493 35,000 840 Climbing Albuquerque Center
12:10 34.4761 -111.5597 18° North 441 507 35,000  Level Albuquerque Center
12:11 34.5881 -111.4778 31° Northeast 477 549 35,000  Level Albuquerque Center
12:12 34.6758 -111.3550 49° Northeast 481 554 35,000  Level Albuquerque Center
12:13 34.7700 -111.2464 43° Northeast 472 543 35,000  Level Albuquerque Center
12:14 34.8733 -111.1550 36° Northeast 460 529 35,000 600 Level Albuquerque Center
12:15 34.9728 -111.0642 37° Northeast 452 520 36,300 1,380 Climbing Albuquerque Center
12:16 35.0886 -110.9564 37° Northeast 449 517 37,900 1,260 Climbing Albuquerque Center
12:17 35.2036 -110.8514 37° Northeast 457 526 39,000 900 Climbing Albuquerque Center
12:18 35.3044 -110.7619 36° Northeast 464 534 39,800 720 Climbing Albuquerque Center
12:19 35.4033 -110.6678 38° Northeast 467 537 40,600 540 Climbing Albuquerque Center
12:21 35.5206 -110.5608 37° Northeast 468 539 41,000 180 Climbing Albuquerque Center
12:22 35.6219 -110.4678 37° Northeast 473 544 41,000  Level Albuquerque Center
12:23 35.7392 -110.3600 37° Northeast 470 541 41,000  Level Albuquerque Center
12:24 35.8375 -110.2669 37° Northeast 466 536 41,000  Level Albuquerque Center
12:25 35.9519 -110.1600 37° Northeast 462 532 41,000  Level Albuquerque Center
12:26 36.0503 -110.0675 37° Northeast 462 532 41,000  Level Albuquerque Center
12:27 36.1650 -109.9603 37° Northeast 462 532 41,000  Level Albuquerque Center
12:28 36.3125 -109.8222 37° Northeast 461 531 41,000  Level Denver Center
12:29 36.4114 -109.7283 37° Northeast 463 533 41,000  Level Denver Center
12:30 36.5253 -109.6206 37° Northeast 459 528 41,000  Level Denver Center
12:31 36.6231 -109.5272 37° Northeast 460 529 41,000  Level Denver Center
12:32 36.7364 -109.4186 38° Northeast 458 527 41,000  Level Denver Center
12:33 36.8339 -109.3258 37° Northeast 458 527 41,000  Level Denver Center
12:34 36.9467 -109.2147 38° Northeast 459 528 41,000  Level Denver Center
12:35 37.0439 -109.1222 37° Northeast 458 527 41,000  Level Denver Center
12:37 37.1567 -109.0119 38° Northeast 460 529 41,000  Level Denver Center
12:38 37.2539 -108.9150 38° Northeast 464 534 41,000  Level Denver Center
12:39 37.3667 -108.8053 38° Northeast 460 529 41,000  Level Denver Center
12:40 37.4644 -108.7103 38° Northeast 461 531 41,000  Level Denver Center
12:41 37.5614 -108.6114 39° Northeast 466 536 41,000  Level Denver Center
12:42 37.6742 -108.5003 38° Northeast 462 532 41,000  Level Denver Center
12:43 37.7703 -108.4031 39° Northeast 460 529 41,000  Level Denver Center
12:44 37.8828 -108.2950 37° Northeast 456 525 41,000  Level Denver Center
12:45 37.9792 -108.1978 38° Northeast 460 529 41,000  Level Denver Center
12:46 38.0953 -108.0797 39° Northeast 462 532 41,000  Level Denver Center
12:47 38.1914 -107.9819 39° Northeast 463 533 41,000  Level Denver Center
12:48 38.2867 -107.8844 39° Northeast 460 529 41,000  Level Denver Center
12:49 38.3989 -107.7725 38° Northeast 459 528 41,000  Level Denver Center
12:50 38.4956 -107.6753 38° Northeast 462 532 41,000  Level Denver Center
12:51 38.6064 -107.5600 39° Northeast 461 531 41,000  Level Denver Center
12:52 38.7022 -107.4606 39° Northeast 462 532 41,000  Level Denver Center
12:53 38.8150 -107.3447 39° Northeast 465 535 41,000  Level Denver Center
12:54 38.9111 -107.2472 38° Northeast 463 533 41,000  Level Denver Center
12:55 39.0239 -107.1292 39° Northeast 469 540 41,000  Level Denver Center
12:56 39.1186 -107.0286 39° Northeast 462 532 41,000  Level Denver Center
12:57 39.2317 -106.9119 39° Northeast 466 536 41,000  Level Denver Center
12:58 39.3286 -106.8125 38° Northeast 467 537 41,000  Level Denver Center
12:59 39.4353 -106.6947 40° Northeast 456 525 41,000  Level Denver Center
13:00 39.5308 -106.5944 39° Northeast 459 528 41,000  Level Denver Center
13:01 39.6394 -106.4797 39° Northeast 463 533 41,000 -120 Level Denver Center
13:02 39.7417 -106.3708 39° Northeast 465 535 40,800 -480 Descending Denver Center
13:03 39.8439 -106.2611 39° Northeast 473 544 40,000 -1,080 Descending Denver Center
13:04 39.9467 -106.1494 40° Northeast 480 552 38,600 -1,440 Descending Denver Center
13:05 40.0486 -106.0383 40° Northeast 478 550 37,100 -1,560 Descending Denver Center
13:07 40.1717 -105.9056 39° Northeast 477 549 35,400 -1,860 Descending Denver Center
13:08 40.2733 -105.7931 40° Northeast 478 550 33,300 -2,520 Descending Denver Center
13:09 40.3764 -105.6803 40° Northeast 483 556 30,200 -3,000 Descending Denver Center
13:10 40.4792 -105.5681 40° Northeast 479 551 27,100 -3,240 Descending Denver Center
13:11 40.5758 -105.4600 40° Northeast 460 529 23,600 -3,360 Descending Denver Center
13:12 40.6647 -105.3597 41° Northeast 431 496 20,200 -3,300 Descending Denver Center
13:13 40.7481 -105.2683 40° Northeast 400 460 16,800 -3,120 Descending Denver Center
13:14 40.8403 -105.1600 42° Northeast 383 441 13,800 -1,860 Descending Denver Center
13:15 40.9036 -105.0903 40° Northeast 342 394 13,000 -360 Descending Denver Center
13:16 40.9592 -105.0319 38° Northeast 292 336 13,100  Climbing Denver Center
13:17 41.0058 -104.9686 46° Northeast 265 305 13,100 -420 Level Denver Center
13:18 41.0211 -104.8708 78° East 272 313 12,300 -780 Descending Denver Center
13:20 41.1500 -104.8000 42° Northeast  Level FlightAware Approximate
13:27 41.1556 -104.8105 42° Northeast  Level Estimated
13:28 41.1556 -104.8105 42° Northeast  Level Estimated
13:29 41.1556 -104.8105 42° Northeast  Level Estimated
13:30 41.1556 -104.8105 42° Northeast  Level Estimated